National Weather Service Raw Text Product

Displaying AFOS PIL: RWRIL Received: 2018-02-19 17:00 UTC


843 
ASUS43 KLOT 191658
RWRIL 

ILLINOIS REGIONAL WEATHER ROUNDUP
NATIONAL WEATHER SERVICE CHICAGO/ROMEOVILLE IL
1100 AM CST MON FEB 19 2018

NOTE: "FAIR" INDICATES FEW OR NO CLOUDS BELOW 12,000 FEET WITH NO
SIGNIFICANT WEATHER AND/OR OBSTRUCTIONS TO VISIBILITY.

* THESE STATIONS ARE NOT UNDER NWS QUALITY CONTROL. THEY ALSO MAY NOT
  REPORT WEATHER SUCH AS PRECIPITATION OR FOG.

ILZ001-002-007-009-015-016-024-191800-
NORTHWEST ILLINOIS
  
CITY           SKY/WX    TMP DP  RH WIND       PRES   REMARKS
MOLINE         LGT RAIN  51  50  96 S8        29.70F                  
$$

ILZ003-004-008-010-011-017-018-191800-
NORTH CENTRAL ILLINOIS
  
CITY           SKY/WX    TMP DP  RH WIND       PRES   REMARKS
ROCKFORD       NOT AVBL                                               
$$

ILZ005-006-012>014-019>023-191800-
NORTHEAST ILLINOIS
  
CITY           SKY/WX    TMP DP  RH WIND       PRES   REMARKS
CHICAGO-OHARE  CLOUDY    44  42  93 SE7       29.81F FOG              
CHICAGO-MIDWAY RAIN      45  45 100 S6        29.82F FOG              
AURORA         NOT AVBL                                               
WAUKEGAN       LGT RAIN  40  39  97 NE3       29.82F VSB 3/4          
DUPAGE AIRPORT NOT AVBL                                               
WHEELING       NOT AVBL                                               
NORTHERLY ISL    N/A     39  37  92 SE1         N/A                   
$$

LMZ740>746-191800-
SOUTHERN LAKE MICHIGAN
  
STATION/POSITION SKY/WX   TEMP    WIND        PRES    VSBY  WAVE
                          AIR SEA DIR/SP/G                  HT/PER
                          (F)     (DEG/KT/KT) (MB)    (MI)  (FT/S)
HARRISON CRIB              42     150/ 10/ 10   N/A
BURNHAM HARBOR             39      60/  1/  7   N/A
CALUMET HARBOR             44     150/  5/  7 1009.8F
BURNS HARBOR               48     170/ 10/ 15 1011.2F
MICHIGAN CITY              46     140/ 12/ 14   N/A
$$

ILZ025>027-034>036-040-047-049-050-058-095>099-191800-
WEST-CENTRAL ILLINOIS
  
CITY           SKY/WX    TMP DP  RH WIND       PRES   REMARKS
$$

ILZ028>032-037-038-041>044-048-051>054-059>061-191800-
CENTRAL ILLINOIS
  
CITY           SKY/WX    TMP DP  RH WIND       PRES   REMARKS
PEORIA         NOT AVBL                                               
SPRINGFIELD    CLOUDY    61  58  90 S22G31    29.85R                  
TAYLORVILLE    NOT AVBL                                               
$$

ILZ033-039-045-046-055>057-062-063-191800-
EAST-CENTRAL ILLINOIS
  
CITY           SKY/WX    TMP DP  RH WIND       PRES   REMARKS
CHAMPAIGN      LGT RAIN  58  57  97 S32G39    29.85F                  
$$

ILZ079-100>102-191800-
SOUTHWEST ILLINOIS
  
CITY           SKY/WX    TMP DP  RH WIND       PRES   REMARKS
ALTON          RAIN      59  57  94 S18G30    29.91R                  
BELLEVILLE     LGT RAIN  59  57  94 SW15      29.93R                  
CAHOKIA*       RAIN      60  57  89 S12G23    29.91R FOG              
$$

ILZ064>066-069>071-074>076-080>082-084>086-088>090-092>094-191800-
SOUTH-CENTRAL ILLINOIS
  
CITY           SKY/WX    TMP DP  RH WIND       PRES   REMARKS
CARBONDALE     NOT AVBL                                               
$$

ILZ067-068-072-073-078-083-087-091-191800-
SOUTHEAST ILLINOIS
  
CITY           SKY/WX    TMP DP  RH WIND       PRES   REMARKS
$$

ABBREVIATIONS USED IN REMARKS
   TC - TEMPERATURE IN CELSIUS
  WCI - WIND CHILL INDEX
   HX - HEAT INDEX
  VSB - VISIBILITY
$$